Lapse_Rate
5.5 5.4 5.5 5.5 5.5 5.4 5.3 5.4 5.6 5.9 5.8 5.9 5.9 5.9 5.8 5.7 5.5 5.4 5.2 4.7 4.9 4.9 4.8 4.9 4.9 4.9 4.9 4.9 5.0 5.0 4.9 4.9 5.0 4.8 4.8 4.9 5.0 5.2 5.5 5.5 5.3 5.0 4.8
5.6 5.6 5.6 5.7 5.6 5.5 5.5 5.4 5.8 5.9 5.8 5.8 5.9 6.0 6.0 5.7 5.4 5.3 5.2 4.9 4.7 4.7 4.9 4.7 4.8 4.9 4.9 5.2 4.9 4.9 4.7 4.9 4.8 4.7 4.9 5.2 5.3 5.3 5.4 5.3 5.0 5.0 4.9
5.7 5.6 5.7 5.8 5.8 5.6 5.5 5.7 5.9 5.8 6.0 6.0 5.9 6.0 6.1 5.8 5.5 5.4 5.4 5.2 5.1 4.8 5.0 4.8 4.8 5.0 5.1 4.7 4.7 4.7 4.8 4.7 4.9 4.9 5.1 5.6 5.4 5.3 5.0 5.1 5.3 5.3 4.9
5.7 5.7 5.7 5.9 5.9 5.7 5.7 5.9 5.8 5.9 6.0 6.0 5.9 6.0 6.0 5.8 5.5 5.6 5.6 5.4 5.2 4.9 4.9 5.0 5.5 5.3 4.9 4.8 5.0 5.0 5.2 5.1 5.0 5.2 4.9 4.8 5.5 5.4 5.1 5.4 5.4 5.3 5.2
5.6 5.6 5.7 5.8 5.9 5.8 5.8 5.8 5.8 5.8 6.0 6.0 6.0 5.9 5.9 5.8 5.6 5.6 5.8 5.8 5.6 5.5 5.9 5.5 5.3 5.2 5.0 5.0 5.1 5.2 5.3 5.3 5.7 5.4 5.0 5.2 5.4 5.3 5.0 5.3 5.5 5.4 5.3
5.5 5.5 5.7 5.6 5.8 5.8 5.8 5.9 5.8 5.9 6.0 5.9 5.9 5.9 5.8 5.8 5.6 5.7 5.8 5.6 5.9 5.9 6.1 5.8 5.5 5.0 5.2 5.2 5.3 5.4 5.2 5.5 5.3 5.0 5.4 5.2 5.3 5.3 5.2 5.6 5.7 5.5 5.1
5.6 5.6 5.7 5.6 5.7 5.7 5.8 5.8 5.8 5.9 5.9 5.8 5.6 5.9 5.8 5.8 5.8 5.7 5.6 5.6 5.6 5.7 5.6 5.6 5.4 5.5 5.5 5.4 5.4 5.4 5.4 5.5 5.5 5.2 5.4 5.2 5.4 5.5 5.3 5.6 5.5 5.4 5.3
5.8 5.8 5.7 5.6 5.6 5.6 5.6 5.7 5.9 6.0 5.9 5.9 5.9 5.8 5.8 5.7 5.8 5.8 5.7 5.6 5.7 5.6 5.5 5.7 5.7 5.6 5.4 5.4 5.3 5.5 5.5 5.8 4.7 5.5 5.5 5.4 5.4 5.4 5.4 5.4 5.5 5.4 5.4
5.5 5.6 5.8 5.6 5.6 5.4 5.4 5.6 5.8 5.9 6.0 6.0 6.0 5.8 5.8 5.7 5.7 5.8 5.7 5.6 5.6 5.6 5.5 5.7 5.7 5.4 5.3 5.4 5.3 5.4 5.7 5.4 5.2 5.3 5.5 5.3 5.4 5.3 5.5 5.3 5.5 5.4 5.3
5.2 5.8 5.7 5.6 5.6 5.4 5.3 5.6 5.6 5.7 5.8 5.9 6.0 5.9 5.7 5.7 5.6 5.7 5.8 5.7 5.7 5.6 5.6 5.7 5.6 5.4 5.4 5.6 5.3 5.3 5.4 5.5 5.2 5.3 5.0 5.1 5.1 5.2 5.4 5.3 5.5 5.6 5.4
5.2 5.0 5.2 5.5 5.4 5.3 5.2 5.4 5.6 5.6 5.6 5.7 5.8 5.8 5.7 5.7 5.3 5.3 5.5 5.7 5.6 5.5 5.5 5.5 5.4 5.3 5.3 5.4 5.3 5.1 5.2 5.1 5.2 4.9 4.8 5.2 5.1 5.2 5.2 5.2 5.3 5.5 5.4
5.6 5.1 5.1 5.2 5.2 5.1 5.1 5.1 5.3 5.6 5.6 5.6 5.8 5.7 5.6 5.6 5.8 5.5 5.2 5.5 5.6 5.6 5.7 5.6 5.7 5.5 5.4 5.5 5.4 4.9 4.9 4.9 4.9 4.8 4.7 4.8 5.2 5.3 5.3 5.2 5.2 5.4 5.4
5.5 5.0 5.0 5.5 5.3 5.2 5.0 5.3 5.0 5.3 5.6 5.4 5.3 5.7 5.8 5.4 5.3 5.6 5.0 5.5 5.6 5.6 5.5 5.4 5.4 5.5 5.5 5.0 5.4 4.9 4.7 5.2 4.8 4.6 4.9 4.6 4.9 5.3 5.2 5.3 5.3 5.4 5.4
5.3 5.1 5.5 5.6 5.7 5.6 5.3 5.5 5.3 5.3 5.1 5.3 5.4 5.2 5.5 5.6 5.4 5.1 5.7 5.7 5.4 5.4 5.3 5.1 5.4 5.3 5.1 5.1 5.1 4.9 5.2 5.2 5.1 4.7 4.6 4.7 4.9 5.3 5.2 5.2 5.2 5.3 5.3
5.1 5.1 5.5 5.6 5.6 5.6 5.2 5.4 5.6 5.5 5.8 5.8 5.7 5.7 5.5 5.5 5.7 5.5 5.0 5.2 4.9 4.9 5.4 5.3 5.2 5.3 5.2 5.1 5.1 5.0 4.9 5.1 5.3 4.6 4.9 5.0 5.3 5.4 5.4 5.4 5.3 5.2 5.2
5.2 5.1 5.7 5.7 5.6 5.8 5.7 5.8 5.7 5.8 5.5 5.6 5.7 5.8 5.7 5.6 5.4 5.5 5.3 5.1 5.0 5.2 5.0 4.9 4.9 4.8 5.0 5.2 4.9 5.0 5.5 5.3 4.9 4.9 4.9 5.3 5.4 5.5 5.4 5.3 5.3 5.3 5.3
5.4 5.4 5.7 5.8 5.8 5.9 5.8 6.0 5.6 6.0 5.7 5.9 5.4 5.6 5.6 5.6 5.3 5.5 5.2 5.4 5.1 5.1 4.8 4.8 5.0 5.1 5.5 5.5 5.4 5.2 5.3 5.6 5.5 4.8 4.8 5.6 5.5 5.3 5.3 5.4 5.4 5.3 5.4
5.4 5.6 5.9 5.5 5.9 5.9 5.4 5.8 5.8 5.6 5.8 5.9 5.8 5.6 5.4 5.4 5.6 5.6 5.5 5.7 5.5 5.4 5.2 5.3 5.4 5.2 5.2 5.4 5.3 5.4 5.3 5.1 5.3 5.2 5.4 6.0 6.0 5.4 5.2 5.3 5.5 5.4 5.5
5.8 5.7 5.7 5.8 5.4 5.8 5.7 5.7 5.6 5.5 5.4 5.6 5.6 5.4 5.5 5.5 5.6 5.6 5.6 5.4 5.3 5.4 5.3 5.5 5.6 5.4 5.3 5.3 5.5 5.5 5.2 5.4 5.1 5.2 5.5 5.8 6.2 5.3 5.3 5.4 5.5 5.6 5.5
5.9 5.9 5.8 5.8 5.8 5.7 6.0 5.6 5.8 5.2 5.1 5.3 5.7 5.5 5.7 5.8 5.8 5.8 5.9 5.6 5.6 5.6 5.7 5.8 5.8 5.7 5.6 5.7 5.9 5.6 5.4 5.4 5.0 5.0 5.0 5.6 6.1 5.6 5.3 5.5 5.8 5.8 5.5
5.8 6.0 6.0 5.9 6.2 6.0 5.9 5.6 5.5 5.0 5.1 5.4 5.2 5.3 5.4 5.7 5.7 5.6 5.6 5.7 5.8 5.6 5.8 5.8 5.7 5.7 5.9 6.0 6.2 5.9 5.6 5.3 5.8 4.9 5.7 5.7 5.2 5.1 5.2 5.4 5.4 5.7 5.6
6.0 5.7 5.7 5.8 6.0 6.0 5.8 5.9 5.5 5.5 5.6 5.4 5.4 5.7 5.6 5.8 5.9 6.0 5.7 5.7 5.9 5.9 5.8 5.9 6.0 5.9 5.9 6.0 6.0 5.9 5.7 5.7 5.7 5.6 5.5 5.0 5.3 5.0 5.0 6.0 6.3 5.8 5.8
5.7 5.7 6.0 5.9 6.0 6.1 6.0 5.8 5.8 5.9 5.8 5.7 6.0 5.9 5.7 5.7 6.2 6.0 6.0 6.1 5.9 5.7 5.9 6.0 5.9 5.9 6.0 6.0 5.8 6.0 5.9 5.7 5.6 5.9 5.9 5.9 5.9 5.5 5.6 4.6 6.1 6.0 4.8
5.4 5.6 5.9 6.0 6.1 6.0 6.0 5.9 6.0 6.2 6.1 5.7 5.8 6.1 6.1 6.0 6.2 6.1 6.0 5.9 5.7 5.6 5.6 5.7 5.7 5.7 5.8 5.8 5.9 5.7 6.0 5.7 5.7 5.5 5.5 5.6 5.4 5.7 5.3 5.1 5.3 5.9 5.2
5.7 5.6 6.1 6.0 6.0 5.9 6.0 6.4 6.5 6.5 6.4 6.2 6.2 6.1 6.4 6.2 6.1 6.1 6.0 6.1 6.1 5.7 5.6 5.6 5.6 5.7 5.8 5.8 5.7 5.5 5.4 5.9 6.1 6.3 5.5 5.6 5.4 5.8 6.1 5.6 6.1 6.2 5.4
5.9 6.1 6.1 6.0 6.1 6.4 6.4 6.6 6.6 6.6 6.5 6.5 6.5 6.4 6.4 6.4 6.4 6.1 6.1 6.0 5.9 5.9 5.5 5.4 5.4 5.5 5.4 5.4 5.4 5.0 4.8 5.5 6.2 6.5 6.1 5.5 5.7 6.2 6.2 4.4 5.7 5.3 4.8
Wind_Speed
14 15 13 15 15 15 16 17 17 19 19 19 20 20 19 20 21 22 24 24 22 18 19 18 15 9 7 12 15 16 19 20 21 21 20 18 16 12 10 13 20 17 16
18 18 13 14 15 15 16 16 17 17 18 19 19 19 19 19 20 19 21 22 22 19 16 14 12 11 15 19 18 18 17 17 20 20 19 17 18 18 18 19 21 16 16
18 18 16 14 14 14 16 14 16 16 16 17 19 20 20 20 20 21 20 20 19 19 13 10 13 20 20 19 18 17 15 15 19 22 20 16 15 17 17 19 17 16 15
19 19 17 14 14 15 15 13 14 15 16 16 19 20 21 21 21 23 21 21 21 19 18 16 19 20 18 15 14 14 13 13 14 14 15 16 18 16 15 15 16 16 14
19 22 17 15 13 15 14 13 12 14 14 14 16 20 21 21 20 20 22 22 22 21 20 19 19 19 18 14 9 10 8 8 10 11 17 17 15 16 13 13 15 12 14
20 22 16 15 13 13 13 13 12 14 14 15 15 18 19 19 19 18 19 20 20 19 19 20 18 18 16 12 9 5 2 4 2 14 18 18 16 15 13 14 16 15 13
18 20 17 14 12 11 13 12 12 13 12 12 17 15 18 18 17 17 17 17 17 18 17 17 14 14 13 10 5 3 5 6 14 14 18 16 15 14 13 14 15 13 12
20 19 17 14 12 11 11 11 11 12 12 12 13 16 14 16 15 16 17 16 16 15 14 14 12 12 11 8 3 4 7 10 4 14 19 16 15 14 12 13 14 13 11
20 17 17 15 14 12 12 10 10 10 11 12 12 13 13 15 15 16 15 14 14 13 13 12 10 8 7 5 3 7 8 9 12 14 19 15 15 13 13 12 13 12 11
11 15 15 18 17 15 13 11 10 10 10 10 10 11 13 15 15 15 15 14 12 12 10 10 8 7 7 7 7 7 6 10 11 7 16 17 17 13 12 12 13 12 12
9 11 12 16 17 15 14 11 10 10 10 10 10 10 11 12 13 14 11 14 12 11 10 9 8 8 9 10 10 11 7 11 12 2 14 23 20 13 13 12 14 12 11
8 7 7 14 11 10 7 14 10 12 11 11 11 15 14 10 16 7 13 16 13 13 12 11 11 13 11 11 13 17 11 15 10 9 15 23 23 16 13 13 13 13 11
13 6 11 12 13 10 7 8 8 9 4 14 11 3 9 10 21 18 14 12 12 14 10 10 13 12 12 13 12 12 13 14 12 11 20 25 25 22 16 15 15 14 13
14 9 12 11 11 5 6 8 4 3 7 1 3 3 3 2 3 2 7 11 11 12 10 16 12 13 11 4 4 8 10 8 9 13 20 26 25 24 21 18 17 17 17
13 10 14 10 5 5 5 6 10 7 6 2 3 4 2 3 3 3 3 8 7 12 8 8 8 8 3 6 6 8 7 10 11 6 14 21 23 24 23 22 20 19 19
12 9 15 10 7 5 2 8 6 3 9 7 5 1 6 4 3 3 1 3 5 3 1 4 2 1 3 4 5 6 7 9 11 12 15 19 24 25 25 24 24 22 21
11 10 11 11 10 6 3 7 8 8 7 3 4 7 3 3 4 1 1 3 5 6 2 3 2 4 4 4 5 5 5 6 6 5 8 12 16 20 24 24 23 24 23
10 9 11 9 14 9 6 9 6 6 4 5 6 10 11 9 11 6 4 4 11 8 5 3 3 1 4 4 5 4 4 5 8 7 9 11 13 17 21 26 26 25 24
12 8 6 4 6 9 7 4 9 13 8 6 10 7 9 9 7 3 4 5 4 4 4 4 3 3 3 4 5 5 5 7 7 9 9 13 17 16 13 22 25 25 26
13 10 6 4 7 1 5 1 5 4 3 5 2 7 4 4 1 3 4 3 2 4 4 3 3 3 4 5 7 6 5 4 5 7 8 10 13 19 16 14 18 18 23
8 15 13 8 8 4 4 3 4 3 6 4 4 6 3 4 3 4 3 4 4 4 4 2 2 6 4 4 4 4 6 4 4 5 7 8 14 8 5 14 19 19 19
11 6 9 7 6 5 4 3 1 2 2 3 4 6 4 9 5 5 3 3 4 4 2 4 3 3 3 3 1 2 2 2 3 2 2 7 7 4 11 21 19 18 20
11 9 9 7 9 7 2 2 2 4 0 3 3 6 8 15 3 4 3 1 4 2 3 4 4 2 2 2 3 0 3 2 3 4 4 2 8 6 5 4 10 6 11
13 10 11 9 12 9 6 3 4 2 2 1 3 5 8 1 2 3 4 3 4 3 5 4 3 3 2 3 0 2 1 1 2 1 4 6 7 7 3 4 3 13 9
12 12 11 9 8 7 7 3 4 5 1 2 4 5 2 2 6 6 6 4 5 4 4 5 5 4 3 3 5 0 2 3 3 1 4 6 4 5 1 3 5 5 18
12 11 11 10 8 7 5 4 3 4 1 2 2 1 4 1 1 4 4 3 4 4 5 4 5 4 4 4 4 4 2 2 2 2 3 4 8 4 2 3 3 8 3
Wind_Direction
111 120 107 93 86 81 80 84 80 83 83 80 80 84 85 99 115 117 109 99 99 86 115 118 126 154 183 163 144 118 102 98 99 96 93 91 86 77 82 117 105 93 92
122 118 111 99 86 84 82 79 85 85 83 86 81 82 91 98 109 118 115 106 101 94 90 96 105 130 141 115 110 106 107 110 112 108 106 96 83 82 84 90 87 96 97
116 127 108 99 88 90 80 82 83 86 84 82 82 83 93 96 101 112 113 114 110 111 121 132 135 121 111 110 115 117 118 130 133 132 126 104 95 92 92 92 100 99 94
134 123 112 102 91 92 88 90 89 88 86 85 87 85 94 98 104 110 107 109 112 128 131 129 106 103 106 111 123 133 144 150 142 147 107 118 100 102 100 103 103 100 96
118 106 111 105 95 93 93 95 93 93 90 94 91 92 94 102 103 104 108 111 112 117 117 112 109 110 108 116 127 134 153 169 165 178 118 114 109 108 107 111 106 108 104
108 109 114 104 105 100 96 97 106 94 97 97 102 101 100 103 109 111 109 107 110 109 113 112 114 110 111 117 130 113 270 279 280 102 88 99 102 114 111 106 100 108 115
110 117 111 109 105 103 106 105 106 101 101 97 99 102 107 111 113 112 107 109 107 115 113 114 109 103 106 105 107 155 240 285 232 139 112 110 118 119 120 116 116 110 113
115 112 115 116 114 115 109 113 109 113 109 107 104 110 110 111 111 109 113 113 112 111 108 109 101 106 105 112 123 291 310 307 112 138 116 121 124 124 127 122 121 119 118
123 124 137 131 127 122 121 116 122 116 114 114 118 121 126 128 126 123 121 118 121 120 122 112 114 118 129 127 167 233 266 303 312 128 118 125 133 140 140 135 128 131 130
126 136 137 141 146 144 130 124 129 133 134 134 138 147 151 149 144 140 136 133 132 133 135 135 145 153 165 194 209 256 292 286 266 213 123 133 143 155 146 144 136 138 145
127 150 125 133 117 118 132 140 144 151 157 158 166 170 175 170 154 146 148 146 148 155 163 165 174 192 202 224 232 233 225 300 282 173 132 148 147 159 158 158 150 152 153
151 137 124 118 132 108 139 152 185 171 174 190 190 179 205 191 123 207 176 156 163 175 184 188 198 211 217 228 234 240 206 218 234 160 142 157 150 165 170 171 157 161 168
136 149 108 115 133 143 145 194 163 153 220 163 205 134 260 169 151 180 175 167 181 192 188 200 220 223 227 220 222 237 225 217 193 166 169 165 160 164 178 182 175 175 179
134 159 113 134 148 144 99 61 253 207 107 2 282 212 261 58 268 200 171 186 195 178 186 200 211 212 235 231 295 311 306 280 273 144 169 170 169 167 179 191 189 188 189
141 169 131 116 112 127 136 146 69 1 329 140 143 231 60 355 310 25 116 141 231 123 245 226 204 217 186 259 263 236 259 271 296 139 165 180 178 177 183 190 196 199 200
146 159 117 132 135 145 184 130 97 331 286 169 163 99 145 225 323 309 192 21 339 21 43 64 75 8 234 211 234 284 224 242 239 271 163 191 192 184 191 195 197 202 206
155 146 134 149 146 151 161 119 133 199 210 254 159 158 169 219 250 182 284 210 238 270 13 255 267 238 250 277 234 227 257 270 288 211 247 168 199 206 201 201 206 205 208
142 135 149 189 150 176 170 133 149 223 186 234 178 176 194 201 192 216 208 246 197 204 221 198 210 225 260 260 274 249 235 252 255 257 251 246 198 207 212 207 209 211 212
129 140 172 169 134 150 125 162 175 183 186 205 173 192 183 178 174 220 225 220 183 169 204 235 168 171 240 254 259 265 234 232 236 234 241 245 241 219 207 210 211 215 212
141 147 163 194 121 100 130 226 172 148 147 205 178 173 175 217 111 247 305 151 217 144 210 114 192 230 229 243 268 306 243 265 338 284 244 247 245 240 188 197 199 234 229
178 159 175 186 127 175 190 219 129 205 178 203 172 111 90 276 261 236 310 352 290 193 312 350 242 238 271 193 272 316 69 39 344 350 13 353 303 333 157 155 187 215 227
176 186 152 150 147 223 190 196 168 267 208 177 98 114 184 231 255 186 238 266 291 334 238 253 270 308 302 18 318 300 310 332 5 349 286 26 332 117 268 195 214 210 228
150 204 145 139 160 209 244 272 149 348 173 120 103 77 349 279 240 291 162 262 277 275 291 242 242 235 323 311 28 300 360 9 306 9 6 299 266 222 168 341 313 271 171
164 184 149 165 167 199 183 220 157 153 87 172 143 171 208 26 59 262 48 47 346 347 314 295 310 261 218 273 116 73 121 129 317 231 289 285 288 349 132 80 191 327 277
165 169 157 152 180 176 197 129 183 197 200 246 101 109 94 58 36 43 32 14 348 22 334 20 17 3 306 342 345 9 187 197 233 287 324 310 324 194 246 166 91 338 282
151 165 146 146 196 176 180 181 232 150 224 52 21 120 87 57 51 83 67 35 18 8 27 10 16 335 338 322 338 347 304 264 179 188 243 288 289 299 246 257 206 217 163